Darstellungsparameter: Aktuell verwendete Einstellungen:
Skalierung der Graphiken ... ?
xyx+y,   Skalierungsfaktor:      Skalierung: Modus: x, Faktor: 1
Darstellungszeitraum ... ?
Vom - - bis: - -   Zeitraum: 07.08.2010 - 07.08.2010
Min/Max/Avg-Anzeige ... ?
Zeige MMA aktuell
Zeige MMA Monat
Zeige MMA alles
Zeige --A aktuell
Zeige --A Monat
Zeige --A alles
Keine MMA-Anzeige
MMA:
Average (ber die Originaldaten)
MMA-Basis: 07.08.2010 - 07.08.2010
Quicknavigation für Darstellung... ?
Tage:      1T, 2T, 3T, 5T -1T -2T -3T -5T +1T +2T +3T +5T
Wochen: 1W, 2W, 3W -1W -2W -3W +1W +2W +3W
Monate: 1M, 3M, 6M -1M -3M -6M +1M +3M +6M
Jahre:    1J, 3J, 5J, 10J -1J -3J -5J -10J +1J +3J +5J +10J
Nutze für die Darstellung ... ?
Originaldaten oder Mittelwerte auf ...
Stundenbasis Tagesbasis Wochenbasis
Monatsbasis Jahresbasis      Datenbasis: Original-Daten
Darstellen als:
Statistik (Auto) Statistik J:M      Darstellung:
Zur Graphik,    zurück zur Übersicht aller Sensoren.
 
Tabellarische Datenbersicht: ?
 
Sensor: Nr:Datum:Temp:Abs-Feuchte:Windchill:Wind:
Aussen-T/F 1 07-08-2010 00:02:02 15.7 C 6.96 g/m*3 15.7 C 0 km/h
2 07-08-2010 00:14:02 15.2 C 7.01 g/m*3 15.2 C 0 km/h
3 07-08-2010 00:26:02 15 C 7.18 g/m*3 15 C 0 km/h
4 07-08-2010 00:38:02 14.8 C 7.09 g/m*3 14.8 C 0 km/h
5 07-08-2010 00:50:02 14.5 C 7.46 g/m*3 14.5 C 0 km/h
6 07-08-2010 01:02:03 14.4 C 7.42 g/m*3 14.4 C 0 km/h
7 07-08-2010 01:14:03 14 C 7.48 g/m*3 14 C 0 km/h
8 07-08-2010 01:26:03 14 C 7.48 g/m*3 14 C 0 km/h
9 07-08-2010 01:38:03 13.8 C 7.63 g/m*3 13.8 C 0 km/h
10 07-08-2010 01:50:03 13.5 C 7.72 g/m*3 13.5 C 0 km/h
11 07-08-2010 02:02:03 13.4 C 7.67 g/m*3 13.4 C 0 km/h
12 07-08-2010 02:14:03 13.2 C 7.92 g/m*3 13.2 C 0 km/h
13 07-08-2010 02:26:03 12.9 C 8 g/m*3 12.9 C 0 km/h
14 07-08-2010 02:38:03 12.8 C 7.95 g/m*3 12.8 C 0 km/h
15 07-08-2010 02:50:03 12.7 C 7.9 g/m*3 12.7 C 0 km/h
16 07-08-2010 03:02:03 12.6 C 7.85 g/m*3 12.6 C 0 km/h
17 07-08-2010 03:14:03 12.5 C 7.7 g/m*3 12.5 C 0 km/h
18 07-08-2010 03:26:03 12.2 C 7.66 g/m*3 12.2 C 0 km/h
19 07-08-2010 03:38:03 12.2 C 7.77 g/m*3 12.2 C 0 km/h
20 07-08-2010 03:50:03 12.1 C 7.72 g/m*3 12.1 C 0 km/h
21 07-08-2010 04:02:03 11.9 C 7.73 g/m*3 11.9 C 0 km/h
22 07-08-2010 04:14:03 11.8 C 7.79 g/m*3 11.8 C 0 km/h
23 07-08-2010 04:26:03 11.6 C 7.69 g/m*3 11.6 C 0 km/h
24 07-08-2010 04:38:03 11.5 C 7.64 g/m*3 11.5 C 0 km/h
25 07-08-2010 04:50:03 11.4 C 7.7 g/m*3 11.4 C 0 km/h
Sensor: Nr:Datum:Temp:Abs-Feuchte:Windchill:Wind:
Aussen-T/F 26 07-08-2010 05:02:04 11.3 C 7.65 g/m*3 11.3 C 0 km/h
27 07-08-2010 05:14:04 11.2 C 7.7 g/m*3 11.2 C 0 km/h
28 07-08-2010 05:26:04 11.1 C 7.66 g/m*3 11.1 C 0 km/h
29 07-08-2010 05:38:04 10.9 C 7.66 g/m*3 10.9 C 0 km/h
30 07-08-2010 05:50:04 10.8 C 7.81 g/m*3 10.8 C 0 km/h
31 07-08-2010 06:02:04 10.6 C 7.71 g/m*3 10.6 C 0 km/h
32 07-08-2010 06:14:04 10.5 C 7.76 g/m*3 10.5 C 0 km/h
33 07-08-2010 06:26:04 10.5 C 7.76 g/m*3 10.5 C 0 km/h
34 07-08-2010 06:38:04 10.4 C 7.81 g/m*3 10.4 C 0 km/h
35 07-08-2010 06:50:04 10.4 C 7.81 g/m*3 10.4 C 0 km/h
36 07-08-2010 07:02:04 10.5 C 7.86 g/m*3 10.5 C 0 km/h
37 07-08-2010 07:14:04 10.5 C 7.86 g/m*3 10.5 C 0 km/h
38 07-08-2010 07:26:04 10.7 C 8.05 g/m*3 10.7 C 0 km/h
39 07-08-2010 07:38:04 10.8 C 8.01 g/m*3 10.8 C 0 km/h
40 07-08-2010 07:50:04 11 C 8.01 g/m*3 11 C 0 km/h
41 07-08-2010 08:02:04 11.2 C 8.01 g/m*3 11.2 C 0 km/h
42 07-08-2010 08:14:04 11.4 C 8.01 g/m*3 11.4 C 0 km/h
43 07-08-2010 08:26:04 11.6 C 8 g/m*3 11.6 C 0 km/h
44 07-08-2010 08:38:04 12 C 8.1 g/m*3 12 C 0 km/h
45 07-08-2010 08:50:04 12.5 C 8.25 g/m*3 12.5 C 0 km/h
46 07-08-2010 09:02:01 12.8 C 8.18 g/m*3 12.8 C 0 km/h
47 07-08-2010 09:14:01 13.4 C 8.25 g/m*3 13.4 C 0 km/h
48 07-08-2010 09:26:02 14.1 C 8.5 g/m*3 14.1 C 0 km/h
49 07-08-2010 09:38:01 14.6 C 8.51 g/m*3 14.6 C 0 km/h
50 07-08-2010 09:50:02 15.4 C 8.54 g/m*3 15.4 C 0 km/h
Sensor: Nr:Datum:Temp:Abs-Feuchte:Windchill:Wind:
Aussen-T/F 51 07-08-2010 10:02:02 16.5 C 8.71 g/m*3 16.5 C 0 km/h
52 07-08-2010 10:14:02 17.5 C 8.8 g/m*3 17.5 C 0 km/h
53 07-08-2010 10:26:02 18.5 C 8.86 g/m*3 18.5 C 0 km/h
54 07-08-2010 10:38:02 19.2 C 8.24 g/m*3 19.2 C 0 km/h
55 07-08-2010 10:50:02 19.4 C 7.67 g/m*3 19.4 C 0 km/h
56 07-08-2010 11:02:02 19.8 C 7.17 g/m*3 19.8 C 0 km/h
57 07-08-2010 11:14:02 20.9 C 6.74 g/m*3 20.9 C 0 km/h
58 07-08-2010 11:26:01 21.5 C 6.03 g/m*3 21.5 C 0 km/h
59 07-08-2010 11:38:02 22.1 C 5.66 g/m*3 22.1 C 0 km/h
60 07-08-2010 11:50:01 22 C 6.02 g/m*3 22 C 0 km/h
61 07-08-2010 12:02:02 22.2 C 5.89 g/m*3 22.2 C 0 km/h
62 07-08-2010 12:14:02 22.6 C 5.62 g/m*3 22.6 C 0 km/h
63 07-08-2010 12:26:01 22.9 C 5.31 g/m*3 22.9 C 0 km/h
64 07-08-2010 12:38:01 23 C 5.14 g/m*3 23 C 0 km/h
65 07-08-2010 12:50:01 23.6 C 5.32 g/m*3 23.6 C 0 km/h
66 07-08-2010 13:02:02 23.9 C 4.76 g/m*3 23.9 C 0 km/h
67 07-08-2010 13:14:02 24.8 C 4.78 g/m*3 24.8 C 0 km/h
68 07-08-2010 13:26:01 25.9 C 4.84 g/m*3 25.9 C 0 km/h
69 07-08-2010 13:38:02 26.6 C 5.03 g/m*3 26.6 C 0 km/h
70 07-08-2010 13:50:02 26.2 C 4.92 g/m*3 26.2 C 0 km/h
71 07-08-2010 14:02:02 26.7 C 5.06 g/m*3 26.7 C 0 km/h
72 07-08-2010 14:14:02 26.6 C 5.03 g/m*3 26.6 C 0 km/h
73 07-08-2010 14:26:02 26.5 C 5.01 g/m*3 26.5 C 0 km/h
74 07-08-2010 14:38:02 26.5 C 5.01 g/m*3 26.5 C 0 km/h
75 07-08-2010 14:50:02 27 C 5.15 g/m*3 27 C 0 km/h
Sensor: Nr:Datum:Temp:Abs-Feuchte:Windchill:Wind:
Aussen-T/F 76 07-08-2010 15:02:02 26.9 C 5.12 g/m*3 26.9 C 0 km/h
77 07-08-2010 15:14:02 27.2 C 5.2 g/m*3 27.2 C 0 km/h
78 07-08-2010 15:26:02 27.7 C 5.35 g/m*3 27.7 C 0 km/h
79 07-08-2010 15:38:02 28.8 C 5.68 g/m*3 28.8 C 0 km/h
80 07-08-2010 15:50:02 28.3 C 5.53 g/m*3 28.3 C 0 km/h
81 07-08-2010 16:02:02 28.5 C 5.59 g/m*3 28.5 C 0 km/h
82 07-08-2010 16:14:03 28.7 C 5.65 g/m*3 28.7 C 0 km/h
83 07-08-2010 16:26:01 29.5 C 5.9 g/m*3 29.5 C 0 km/h
84 07-08-2010 16:38:02 30.1 C 6.1 g/m*3 30.1 C 0 km/h
85 07-08-2010 16:50:02 29.2 C 5.81 g/m*3 29.2 C 0 km/h
86 07-08-2010 17:02:02 29.5 C 5.9 g/m*3 29.5 C 0 km/h
87 07-08-2010 17:14:02 29.5 C 5.9 g/m*3 29.5 C 0 km/h
88 07-08-2010 17:26:02 29.1 C 5.78 g/m*3 29.1 C 0 km/h
89 07-08-2010 17:38:02 29.9 C 6.03 g/m*3 29.9 C 0 km/h
90 07-08-2010 17:50:02 28.5 C 5.59 g/m*3 28.5 C 0 km/h
91 07-08-2010 18:02:02 28.2 C 5.5 g/m*3 28.2 C 0 km/h
92 07-08-2010 18:14:02 27.9 C 5.95 g/m*3 27.9 C 0 km/h
93 07-08-2010 18:26:02 27.3 C 6.8 g/m*3 27.3 C 0 km/h
94 07-08-2010 18:38:02 26.9 C 6.14 g/m*3 26.9 C 0 km/h
95 07-08-2010 18:50:02 26.7 C 6.83 g/m*3 26.7 C 0 km/h
96 07-08-2010 19:02:01 26.1 C 6.61 g/m*3 26.1 C 0 km/h
97 07-08-2010 19:14:01 25.6 C 7.14 g/m*3 25.6 C 0 km/h
98 07-08-2010 19:26:02 24.8 C 6.83 g/m*3 24.8 C 0 km/h
99 07-08-2010 19:38:01 24.7 C 6.79 g/m*3 24.7 C 0 km/h
100 07-08-2010 19:50:02 24.6 C 6.75 g/m*3 24.6 C 0 km/h
Sensor: Nr:Datum:Temp:Abs-Feuchte:Windchill:Wind:
Aussen-T/F 101 07-08-2010 20:02:01 24.7 C 6.79 g/m*3 24.7 C 0 km/h
102 07-08-2010 20:14:01 24.2 C 7.04 g/m*3 24.2 C 0 km/h
103 07-08-2010 20:26:01 23.7 C 6.84 g/m*3 23.7 C 0 km/h
104 07-08-2010 20:38:02 23.5 C 7.19 g/m*3 23.5 C 0 km/h
105 07-08-2010 20:50:02 23.2 C 7.07 g/m*3 23.2 C 0 km/h
106 07-08-2010 21:02:02 22.9 C 7.15 g/m*3 22.9 C 0 km/h
107 07-08-2010 21:14:02 22.4 C 7.35 g/m*3 22.4 C 0 km/h
108 07-08-2010 21:26:02 22.3 C 6.91 g/m*3 22.3 C 0 km/h
109 07-08-2010 21:38:02 22.3 C 6.91 g/m*3 22.3 C 0 km/h
110 07-08-2010 21:50:02 22.4 C 6.95 g/m*3 22.4 C 0 km/h
111 07-08-2010 22:02:02 22.2 C 7.07 g/m*3 22.2 C 0 km/h
112 07-08-2010 22:14:02 22 C 6.99 g/m*3 22 C 0 km/h
113 07-08-2010 22:26:02 21.8 C 7.48 g/m*3 21.8 C 0 km/h
114 07-08-2010 22:38:02 21.9 C 7.72 g/m*3 21.9 C 0 km/h
115 07-08-2010 22:50:02 21.9 C 7.72 g/m*3 21.9 C 0 km/h
116 07-08-2010 23:02:01 21.8 C 7.67 g/m*3 21.8 C 0 km/h
117 07-08-2010 23:14:01 21.7 C 7.63 g/m*3 21.7 C 0 km/h
118 07-08-2010 23:26:02 21.7 C 7.82 g/m*3 21.7 C 0 km/h
119 07-08-2010 23:38:02 21.4 C 7.69 g/m*3 21.4 C 0 km/h
120 07-08-2010 23:50:02 21.4 C 7.87 g/m*3 21.4 C 0 km/h

Legende:
   Min
   Max


Maximal/Minimal-Werte vom 07.08.2010 - 07.08.2010

Sensor Min Max Avg
Temp
(Aussen-T/F)
10.4 °C
07-08-2010  06:38:04
30.1 °C
07-08-2010  16:38:02
19.47 °C
Abs-Feuchte
(Aussen-T/F)
4.76 g/m*3
07-08-2010  13:02:02
8.86 g/m*3
07-08-2010  10:26:02
6.91 g/m*3
Windchill
(Aussen-T/F)
10.4 C
07-08-2010  06:38:04
30.1 C
07-08-2010  16:38:02
19.3 C

Die Daten stammen von einer Davis Vantage Pro 2 Wetter-Station und werden unter Linux mit der Software wview2wettercgi und aufbereitet. Alle Angaben erfolgen ohne Gewähr für ihre Vollständigkeit oder Richtigkeit.
Kontakt: Rainer Krienke krienke@uni-koblenz.de . Meine Webseiten an der Uni Koblenz oder privat.
Version: $Revision: 0.78 $